sat.trackr.live / text

‹ back to catalog

KUIPER-00320

NORAD 68601 · 2026-072AE

PAYLOAD ACTIVE UNKNOWN

§ Identity

Operator
Country
US
Launch date
2026-04-04
Launch site
AFETR
Launch vehicle
Mass (kg)
RCS (m²)

External: N2YO · Heavens-Above · Gunter

§ Orbital elements

Epoch: 2026-05-25T02:46:01.284096Z

Period
93.74 min
Inclination
51.8629°
Eccentricity
0.0011728
Mean motion
15.36192886 rev/d
Perigee alt
449.4 km
Apogee alt
465.4 km
Semi-major
6,835.5 km
B*
8.5115e-4
RAAN
288.9705°
Arg perigee
298.1695°
Mean anomaly
61.8106°
Rev number
782

§ Raw data

KUIPER-003201 68601U 26072AE  26145.11529264  .00030281  00000+0  85115-3 0  99922 68601  51.8629 288.9705 0011728 298.1695  61.8106 15.36192886  7820

JSON: /api/v1/satellites/68601 · /tle

For live sub-satellite position, see the globe view (requires WebGL).

§ Visibility from observer

Set your observer location to see the next 7 days of passes ≥ 10°. The values pass through the URL so the page stays shareable.

No JS? Fill the form by hand. The geolocation button needs JavaScript.